Starlink 30880

operational
NORAD ID: 58232 Int'l Des: 2023-171 Owner: SPXS Country: US Constellation: starlink
LEOCIRCULAR

About Starlink 30880

Description loading...

Live Position

Loading 3D Globe...

Upcoming Passes

Altitude History

Altitude vs Time

uPlot chart will show altitude changes over time

Two-Line Element Set

1 58232U 23171C 25350.79030550 .00000897 00000-0 81438-4 0 9990
2 58232 43.0049 16.5933 0001323 276.6936 83.3755 15.02538159117253
Epoch: Dec 16, 2025 • Age: 14 hours

Current Status

Altitude 571.1 km
Velocity 7.58 km/s
Sub-Earth Point -42.14°S, 77.72°E
Launch Date Nov 8, 2023
Age 2.1 years
Type internet

Technical Details

Classification Payload
Mass 730.00 kg
Dry Mass 700.00 kg
Total Mass 730.00 kg
Length 0.30 m
Diameter 4.10 m
Span 29.00 m
Shape Box + pan
Manufacturer SPXS
Bus Type Starlink V2M
Phase Status In Orbit
Owner/State SPXS/US

Large Constellations

Loading constellations...